Location: ???? ?????????
(44.3677°N, 135.2344°E)
Time: 13:37:08
(UTC+00:00)

Cosmos 494 Rocket - Pass Details

Date: 19 May 2025
Orbit: 737 x 767 km, 74.1° (Epoch: 19 June)

Event Time Altitude Azimuth Distance (km) Brightness Sun altitude
Exits shadow 15:48:16 75° 208° (SSW) 772 3.7 -24.6°
Maximum altitude 15:48:43 88° 286° (WNW) 750 3.8 -24.6°
Drops below altitude 10° 15:53:53 10° 20° (NNE) 2,273 7.5 -24.3°
Sets 15:56:16 0° 21° (NNE) 3,206 8.6 -24.2°
